LAOSAT 1 (41034 NORAD) Tracking and Keplerian Element Data

This shows tracking and keplerian element data for the satellite.

Feedback or suggestion? Click here.




ElementValue
Catalog41034
NameLAOSAT 1
Epoch Orbit2155
Epoch Day270.00440309
Epoch Year2021
RAAN49.8078
Inclination0.0433
Eccentricity0.0001486
Argument of Perigee118.7597
Mean Anonmoly327.5419
Mean Motion1.00275246
Decay Rate-3.44E-06
L11 41034U 15067A 21270.00440309 -.00000344 00000-0 00000+0 0 9994
L22 41034 0.0433 49.8078 0001486 118.7597 327.5419 1.00275246 21558

Live tracking and technical data element details for LAOSAT 1 (NORAD 41034). LAOSAT 1 can be tracked NOW for your location showing map with azimuth and elevation plus other details from your city location.

Track the satellite on the map from your city or location and see movement details for azimuth, elevation, latitude, longitude, range, height, and movement on the map or in text.







IsCatalogInMostPopularTable: catalog: 41034, numindb: 567
Update: records affected: 1



GetName: 41034 LAOSAT 1

Hit Count: updated at: Tue, 28 Sep 2021 15:53:53 GMT